Mazatlan Airport, Mexico

12:10 PM MDT on May 26, 2017 (GMT -0600)
Gen Rafael Buelna International

Weather History for MMMZ - November, 2012

Change the Weather History Date:

Saturday, November 17, 2012

  Actual Average Record
Temperature  
Mean Temperature 73 °F -  
Max Temperature 84 °F 84 °F 91 °F (2002)
Min Temperature 62 °F 61 °F 53 °F (2002)
Cooling Degree Days 8    
Growing Degree Days 23 (Base 50)    
Moisture  
Dew Point 67 °F    
Average Humidity 84    
Maximum Humidity 94    
Minimum Humidity 62    
Precipitation  
Precipitation 0.00 in - - ()
Sea Level Pressure  
Sea Level Pressure 29.95 in    
Wind  
Wind Speed 6 mph ()    
Max Wind Speed 9 mph    
Max Gust Speed -    
Visibility 8.7 miles    
Events      
Averages and records for this station are not official NWS values.
T = Trace of Precipitation, MM = Missing Value Source: Averaged Metar Reports

Daily Weather History Graph

Daily Weather History Graph

Search for Another Location

Airport or City:

Trip Planner

Search our weather history database for the weather conditions in past years. The results will help you decide how hot, cold, wet, or windy it might be!

Date:

Astronomy

Nov. 17, 2012 Rise Set
Actual Time 6:20 AM MST 5:19 PM MST
Civil Twilight 5:56 AM MST 5:43 PM MST
Nautical Twilight 5:29 AM MST 6:10 PM MST
Astronomical Twilight 5:02 AM MST 6:37 PM MST
Moon 10:07 AM MST (11/17) 9:30 PM MST (11/17)
Length of Visible Light 11h 46m
Length of Day
10h 59m
Waxing Crescent, 21% of the Moon is Illuminated
Nov 17
Waxing Crescent
Nov 20
First Quarter
Nov 28
Full
Dec 6
Last Quarter
Dec 13
New

Hourly Weather History & Observations

Time (MST) Temp. Heat Index Dew Point Humidity Pressure Visibility Wind Dir Wind Speed Gust Speed Precip Events Conditions
12:41 AM 64.4 °F - 62.6 °F 94% 29.93 in 8.0 mi NNE 6.9 mph - N/A   Clear
1:45 AM 64.4 °F - 62.6 °F 94% 29.93 in 8.0 mi Calm Calm - N/A   Clear
2:42 AM 64.4 °F - 62.6 °F 94% 29.93 in 8.0 mi NNE 6.9 mph - N/A   Clear
3:49 AM 62.6 °F - 60.8 °F 94% 29.92 in 6.0 mi NE 5.8 mph - N/A   Clear
4:43 AM 64.4 °F - 62.6 °F 94% 29.93 in 8.0 mi NNE 6.9 mph - N/A   Clear
5:42 AM 64.4 °F - 62.6 °F 94% 29.95 in 8.0 mi NNE 6.9 mph - N/A   Clear
6:48 AM 64.4 °F - 62.6 °F 94% 29.99 in 8.0 mi North 8.1 mph - N/A   Clear
7:48 AM 68.0 °F - 66.2 °F 94% 30.01 in 8.0 mi North 8.1 mph - N/A   Partly Cloudy
8:48 AM 75.2 °F - 71.6 °F 89% 30.01 in 10.0 mi East 8.1 mph - N/A   Partly Cloudy
9:45 AM 80.6 °F 84.6 °F 71.6 °F 74% 30.01 in 10.0 mi ESE 8.1 mph - N/A   Scattered Clouds
10:48 AM 80.6 °F 83.9 °F 69.8 °F 70% 30.01 in 10.0 mi SSE 9.2 mph - N/A   Scattered Clouds
11:51 AM 82.4 °F 86.3 °F 69.8 °F 66% 29.99 in 10.0 mi South 6.9 mph - N/A   Scattered Clouds
12:44 PM 82.4 °F 86.3 °F 69.8 °F 66% 29.95 in 10.0 mi South 8.1 mph - N/A   Mostly Cloudy
1:42 PM 84.2 °F 88.4 °F 69.8 °F 62% 29.94 in 10.0 mi West 8.1 mph - N/A   Mostly Cloudy
2:41 PM 80.6 °F 83.9 °F 69.8 °F 70% 29.92 in 10.0 mi SSW 6.9 mph - N/A   Mostly Cloudy
3:42 PM 80.6 °F 84.6 °F 71.6 °F 74% 29.92 in 10.0 mi WSW 9.2 mph - N/A   Mostly Cloudy
4:45 PM 78.8 °F - 71.6 °F 78% 29.91 in 10.0 mi WSW 6.9 mph - N/A   Mostly Cloudy
5:42 PM 75.2 °F - 69.8 °F 83% 29.92 in 8.0 mi WSW 6.9 mph - N/A   Mostly Cloudy
6:40 PM 73.4 °F - 69.8 °F 88% 29.93 in 8.0 mi West 6.9 mph - N/A   Mostly Cloudy
7:41 PM 71.6 °F - 69.8 °F 94% 29.95 in 8.0 mi West 5.8 mph - N/A   Mostly Cloudy
8:41 PM 69.8 °F - 66.2 °F 88% 29.95 in 8.0 mi North 8.1 mph - N/A   Mostly Cloudy
9:42 PM 69.8 °F - 66.2 °F 88% 29.96 in 8.0 mi North 8.1 mph - N/A   Clear
10:42 PM 69.8 °F - 66.2 °F 88% 29.96 in 8.0 mi North 8.1 mph - N/A   Clear
11:41 PM 68.0 °F - 64.4 °F 88% 29.96 in 8.0 mi WSW 8.1 mph - N/A   Clear